Lid_Strength_Index
5 4 2 2 2 2 1 2 2 1 1 1 1 1 0 0 0 1 1 1 2 3 3 2 3 2 3 3 3 3 4 4 4 4 3 3 3 5 4 4 4 4 4
4 3 2 2 1 2 2 2 1 1 1 1 1 1 1 1 1 1 1 2 3 3 2 2 3 3 2 2 3 3 2 3 5 4 4 4 5 5 5 5 6 5 5
3 3 2 2 2 2 1 1 0 1 0 0 1 1 1 1 1 1 1 1 2 3 3 3 2 2 2 2 3 3 3 2 3 4 5 4 5 5 7 7 7 6 6
2 2 2 2 2 1 0 1 1 0 0 0 0 1 2 1 1 1 1 1 1 3 2 2 2 3 2 3 4 3 3 3 3 4 5 5 5 5 6 8 9 7 8
3 3 2 1 0 0 1 1 0 0 0 0 1 2 2 2 3 2 1 1 2 3 2 2 3 2 3 3 4 3 3 4 4 5 5 6 6 6 7 7 8 8 8
2 2 1 1 0 1 2 2 1 1 0 0 1 2 2 3 5 4 2 1 3 4 4 3 1 3 3 4 4 4 3 4 5 4 5 6 6 6 7 7 7 7 9
2 1 1 0 1 2 2 2 1 1 1 1 2 1 1 1 4 4 3 1 3 4 5 3 2 3 3 4 3 3 3 4 4 4 5 5 6 5 6 6 7 7 9
3 2 1 1 2 2 2 2 2 2 2 2 1 2 3 4 5 6 5 1 4 4 4 1 4 3 3 4 4 3 3 3 4 3 4 4 4 4 4 5 6 7 6
3 3 3 2 2 2 2 2 2 3 3 3 3 3 4 4 6 6 4 1 2 3 2 3 4 4 5 6 4 4 4 5 5 5 6 7 7 6 5 5 5 6 8
3 3 2 2 3 3 3 4 4 3 4 4 4 4 5 4 6 6 6 3 3 3 3 4 5 6 6 5 4 4 6 6 6 6 5 6 4 4 5 3 4 6 7
2 2 3 3 5 6 5 5 4 5 5 5 6 5 5 5 6 7 7 4 5 5 6 6 4 6 7 7 6 6 6 6 6 7 7 6 5 4 6 6 6 5 6
1 3 3 4 4 4 5 5 6 7 7 7 6 6 6 6 6 7 7 7 6 6 6 5 5 7 8 7 7 9 8 7 5 5 6 7 7 7 7 6 6 6 6
3 4 4 4 5 5 6 6 7 7 8 8 8 7 7 6 5 6 7 7 6 5 4 5 6 7 8 7 8 8 7 4 5 6 7 8 7 7 6 6 6 6 6
3 4 5 6 5 5 6 7 7 7 8 7 8 7 7 6 5 5 5 5 5 4 4 5 6 7 7 6 5 5 4 5 6 7 8 7 7 7 7 7 7 6 8
6 6 6 6 6 6 7 7 7 7 8 8 8 7 7 7 6 8 8 6 6 7 5 4 5 5 6 6 6 5 5 6 7 7 8 8 7 7 7 5 6 6 7
6 6 6 7 7 7 6 6 8 9 9 10 10 8 6 9 10 9 9 9 9 9 5 6 6 7 7 7 7 7 7 8 7 8 8 6 6 6 6 5 5 5 6
7 7 7 7 7 7 7 7 8 7 9 10 10 10 10 10 10 9 9 9 9 7 6 7 7 7 7 7 7 7 6 5 6 5 6 6 6 6 6 6 6 6 6
5 7 6 6 6 7 7 7 6 7 7 6 8 8 10 10 10 9 9 7 6 6 6 7 7 7 7 7 6 5 5 5 5 5 5 5 5 5 5 5 5 5 4
6 6 6 6 6 6 6 6 6 6 7 7 7 7 7 9 9 9 8 6 6 7 6 6 6 5 4 4 4 4 4 4 4 4 4 4 3 3 3 3 3 8 6
5 7 7 5 5 6 6 6 6 7 7 8 8 8 7 7 6 5 4 5 5 5 5 5 3 3 4 4 4 3 3 3 3 3 3 2 2 1 2 2 2 2 1
4 5 7 4 5 6 6 7 7 7 7 7 8 9 13 6 5 4 3 3 3 3 3 3 3 2 2 2 2 2 2 2 2 2 3 3 3 3 2 2 2 2 2
5 5 5 5 4 5 6 6 6 7 7 7 7 7 12 4 4 3 3 3 2 2 2 2 2 2 2 2 2 2 2 2 2 2 2 2 3 3 3 3 3 3 3
6 6 5 5 5 7 6 6 5 5 4 5 5 5 4 4 4 4 4 4 4 4 3 3 3 3 2 2 2 2 2 2 2 2 2 3 4 4 3 3 3 3 3
6 6 6 5 5 5 5 5 4 7 5 5 5 5 4 4 4 5 5 5 5 5 5 4 4 5 4 4 3 4 4 3 3 3 4 4 5 5 4 4 4 4 4
6 6 6 6 6 5 5 5 5 5 6 7 7 6 7 6 5 5 5 5 5 6 6 5 5 5 5 5 5 6 11 13 6 10 4 5 5 5 6 6 5 5 5
7 6 5 5 6 5 5 5 7 6 6 5 5 6 6 6 6 6 6 6 6 6 6 6 6 6 6 6 8 12 13 13 9 13 5 5 6 6 6 6 6 6 6